Pacific Titan — WCZ6844 — position and weather

sailwx.info

Track history (hours):
 
Tides and Currents Weather Stations Pressure Air Temp Water Temp Dewpoint Dewpoint Depression Visibility Wind Speed Wind Dir Waves Ship Positions

Pacific Titan

Owner: WESTERN TOWBOAT CO, SEATTLE, WA. More information available from US FCC via Universal Licensing System and Coast Guard Vessel Documentation Center.

Last reported at 2014-Oct-17 09:19 UTC. Time now 2014-Oct-23 21:24 UTC.
Position N 51°21' W 127°53'.

Type: Tow > 200 m length. MMSI: 338855000.

Date/timePositionNaut miles runAvg speedWind from/ knotsBaromVisibWave heightAir tempDewpointWater temp
2014-Oct-17 09:19N 51°21' W 127°53'7 9.6
2014-Oct-17 08:33N 51°14' W 127°52'10 9.9
2014-Oct-17 07:33N 51°05' W 127°44'1110.6
2014-Oct-17 06:33N 50°58' W 127°31'1211.6
2014-Oct-17 05:33N 50°51' W 127°16'1211.3
2014-Oct-17 04:28N 50°45' W 127°00'910.1
2014-Oct-17 03:34N 50°39' W 126°49'6510.1
2014-Oct-16 21:07N 50°07' W 125°20'711.2
2014-Oct-16 20:29N 50°01' W 125°13'9 9.9
2014-Oct-16 19:33N 49°55' W 125°03'1010.5
2014-Oct-16 18:33N 49°48' W 124°51'1110.8
2014-Oct-16 17:33N 49°41' W 124°38'1110.8
2014-Oct-16 16:33N 49°35' W 124°24'1110.7
2014-Oct-16 15:33N 49°30' W 124°10'1010.5
2014-Oct-16 14:33N 49°24' W 123°57'1110.5
2014-Oct-16 13:33N 49°18' W 123°43'1110.7
2014-Oct-16 12:34N 49°11' W 123°31'1010.4
2014-Oct-16 11:34N 49°03' W 123°20'10 9.6
2014-Oct-16 10:33N 48°57' W 123°09'9 9.4
2014-Oct-16 09:34N 48°51' W 122°58'10 9.7
2014-Oct-16 08:33N 48°45' W 122°46'8 8.5
2014-Oct-16 07:33N 48°37' W 122°45'9 8.9
2014-Oct-16 06:33N 48°28' W 122°44'13 9.5
2014-Oct-16 05:13N 48°15' W 122°47'6 9.0
2014-Oct-16 04:33N 48°10' W 122°44'6 9.7
2014-Oct-16 03:57N 48°05' W 122°38'410.2
2014-Oct-16 03:32N 48°01' W 122°37'010.9
2014-Oct-16 03:31N 48°01' W 122°37'9 9.7
2014-Oct-16 02:34N 47°54' W 122°28'010.3
2014-Oct-16 02:32N 47°53' W 122°28'1010.5
2014-Oct-16 01:33N 47°43' W 122°26'010.5
2014-Oct-16 01:31N 47°43' W 122°27'8 8.4
2014-Oct-16 00:33N 47°35' W 122°22'1 6.7
2014-Oct-16 00:26N 47°35' W 122°22'2 1.8
2014-Oct-15 23:33N 47°33' W 122°21'0 0.0
2014-Oct-15 23:31N 47°33' W 122°21'1 1.0
2014-Oct-15 22:33N 47°34' W 122°21'0 1.7
2014-Oct-15 22:31N 47°34' W 122°21'6 6.7
2014-Oct-15 21:33N 47°40' W 122°24'0 6.8
2014-Oct-15 21:31N 47°40' W 122°24'2 1.7
2014-Oct-15 20:33N 47°39' W 122°22'0 1.2
2014-Oct-15 20:31N 47°39' W 122°22'  
2014-Oct-13 01:03N 47°39' W 122°22'0 0.2
2014-Oct-13 01:01N 47°39' W 122°22'0 0.3
2014-Oct-13 00:33N 47°39' W 122°22'0 6.8
2014-Oct-13 00:31N 47°40' W 122°22'3 3.0
2014-Oct-12 23:33N 47°39' W 122°27'011.1
2014-Oct-12 23:31N 47°39' W 122°26'7 7.1
2014-Oct-12 22:33N 47°33' W 122°21'0 0.1
2014-Oct-12 22:30N 47°33' W 122°21'3 3.6
2014-Oct-12 21:34N 47°36' W 122°23'5 9.2
2014-Oct-12 20:58N 47°40' W 122°28'4 9.4
2014-Oct-12 20:33N 47°44' W 122°27'1 9.0
2014-Oct-12 20:28N 47°45' W 122°27'8 9.2
2014-Oct-12 19:33N 47°53' W 122°29'1 8.5
2014-Oct-12 19:23N 47°55' W 122°30'7 7.9
2014-Oct-12 18:33N 47°59' W 122°37'8 8.1
2014-Oct-12 17:30N 48°07' W 122°42'8 8.8
2014-Oct-12 16:33N 48°14' W 122°48'3 9.6
2014-Oct-12 16:17N 48°17' W 122°48'7 9.5
2014-Oct-12 15:33N 48°24' W 122°45'8 7.8
2014-Oct-12 14:33N 48°31' W 122°45'6 5.8
2014-Oct-12 13:33N 48°37' W 122°45'7 6.5
2014-Oct-12 12:33N 48°44' W 122°46'9 9.1
2014-Oct-12 11:34N 48°49' W 122°57'9 9.2
2014-Oct-12 10:33N 48°55' W 123°09'10 9.6
2014-Oct-12 09:33N 49°01' W 123°20'10 9.7
2014-Oct-12 08:33N 49°08' W 123°30'1010.0
2014-Oct-12 07:33N 49°14' W 123°42'1010.3
2014-Oct-12 06:33N 49°21' W 123°54'10 9.8
2014-Oct-12 05:33N 49°27' W 124°05'1010.2
2014-Oct-12 04:33N 49°32' W 124°19'10 9.8
2014-Oct-12 03:32N 49°38' W 124°32'13 9.6
2014-Oct-12 02:10N 49°46' W 124°48'6 9.5
2014-Oct-12 01:32N 49°50' W 124°55'72 8.7
2014-Oct-11 17:15N 50°30' W 126°28'12 6.9
2014-Oct-11 15:27N 50°36' W 126°45'9 9.3
2014-Oct-11 14:27N 50°42' W 126°56'8 9.1
2014-Oct-11 13:33N 50°47' W 127°06'9 8.7
2014-Oct-11 12:33N 50°52' W 127°18'8 8.4
2014-Oct-11 11:33N 50°57' W 127°28'9 9.0
2014-Oct-11 10:33N 51°03' W 127°39'8 8.3
2014-Oct-11 09:33N 51°08' W 127°49'8 7.1
2014-Oct-11 08:26N 51°16' W 127°52'6 6.6
2014-Oct-11 07:30N 51°22' W 127°53'7 7.8
2014-Oct-11 06:33N 51°29' W 127°51'184 7.3
2014-Oct-10 05:16N 54°08' W 130°23'6 8.0
2014-Oct-10 04:33N 54°13' W 130°29'8 8.1
2014-Oct-10 03:33N 54°20' W 130°36'8 8.4
2014-Oct-10 02:33N 54°28' W 130°40'9 8.8
2014-Oct-10 01:32N 54°37' W 130°44'  
Track history (hours):
 
Tides and Currents Weather Stations Pressure Air Temp Water Temp Dewpoint Dewpoint Depression Visibility Wind Speed Wind Dir Waves Ship Positions

Pacific Titan

Owner: WESTERN TOWBOAT CO, SEATTLE, WA. More information available from US FCC via Universal Licensing System and Coast Guard Vessel Documentation Center.

Last reported at 2014-Oct-17 09:19 UTC. Time now 2014-Oct-23 21:24 UTC.
Position N 51°21' W 127°53'.

Type: Tow > 200 m length. MMSI: 338855000.

Date/timePositionNaut miles runAvg speedWind from/ knotsBaromVisibWave heightAir tempDewpointWater temp
2014-Oct-17 09:19N 51°21' W 127°53'7 9.6
2014-Oct-17 08:33N 51°14' W 127°52'10 9.9
2014-Oct-17 07:33N 51°05' W 127°44'1110.6
2014-Oct-17 06:33N 50°58' W 127°31'1211.6
2014-Oct-17 05:33N 50°51' W 127°16'1211.3
2014-Oct-17 04:28N 50°45' W 127°00'910.1
2014-Oct-17 03:34N 50°39' W 126°49'6510.1
2014-Oct-16 21:07N 50°07' W 125°20'711.2
2014-Oct-16 20:29N 50°01' W 125°13'9 9.9
2014-Oct-16 19:33N 49°55' W 125°03'1010.5
2014-Oct-16 18:33N 49°48' W 124°51'1110.8
2014-Oct-16 17:33N 49°41' W 124°38'1110.8
2014-Oct-16 16:33N 49°35' W 124°24'1110.7
2014-Oct-16 15:33N 49°30' W 124°10'1010.5
2014-Oct-16 14:33N 49°24' W 123°57'1110.5
2014-Oct-16 13:33N 49°18' W 123°43'1110.7
2014-Oct-16 12:34N 49°11' W 123°31'1010.4
2014-Oct-16 11:34N 49°03' W 123°20'10 9.6
2014-Oct-16 10:33N 48°57' W 123°09'9 9.4
2014-Oct-16 09:34N 48°51' W 122°58'10 9.7
2014-Oct-16 08:33N 48°45' W 122°46'8 8.5
2014-Oct-16 07:33N 48°37' W 122°45'9 8.9
2014-Oct-16 06:33N 48°28' W 122°44'13 9.5
2014-Oct-16 05:13N 48°15' W 122°47'6 9.0
2014-Oct-16 04:33N 48°10' W 122°44'6 9.7
2014-Oct-16 03:57N 48°05' W 122°38'410.2
2014-Oct-16 03:32N 48°01' W 122°37'010.9
2014-Oct-16 03:31N 48°01' W 122°37'9 9.7
2014-Oct-16 02:34N 47°54' W 122°28'010.3
2014-Oct-16 02:32N 47°53' W 122°28'1010.5
2014-Oct-16 01:33N 47°43' W 122°26'010.5
2014-Oct-16 01:31N 47°43' W 122°27'8 8.4
2014-Oct-16 00:33N 47°35' W 122°22'1 6.7
2014-Oct-16 00:26N 47°35' W 122°22'2 1.8
2014-Oct-15 23:33N 47°33' W 122°21'0 0.0
2014-Oct-15 23:31N 47°33' W 122°21'1 1.0
2014-Oct-15 22:33N 47°34' W 122°21'0 1.7
2014-Oct-15 22:31N 47°34' W 122°21'6 6.7
2014-Oct-15 21:33N 47°40' W 122°24'0 6.8
2014-Oct-15 21:31N 47°40' W 122°24'2 1.7
2014-Oct-15 20:33N 47°39' W 122°22'0 1.2
2014-Oct-15 20:31N 47°39' W 122°22'  
2014-Oct-13 01:03N 47°39' W 122°22'0 0.2
2014-Oct-13 01:01N 47°39' W 122°22'0 0.3
2014-Oct-13 00:33N 47°39' W 122°22'0 6.8
2014-Oct-13 00:31N 47°40' W 122°22'3 3.0
2014-Oct-12 23:33N 47°39' W 122°27'011.1
2014-Oct-12 23:31N 47°39' W 122°26'7 7.1
2014-Oct-12 22:33N 47°33' W 122°21'0 0.1
2014-Oct-12 22:30N 47°33' W 122°21'3 3.6
2014-Oct-12 21:34N 47°36' W 122°23'5 9.2
2014-Oct-12 20:58N 47°40' W 122°28'4 9.4
2014-Oct-12 20:33N 47°44' W 122°27'1 9.0
2014-Oct-12 20:28N 47°45' W 122°27'8 9.2
2014-Oct-12 19:33N 47°53' W 122°29'1 8.5
2014-Oct-12 19:23N 47°55' W 122°30'7 7.9
2014-Oct-12 18:33N 47°59' W 122°37'8 8.1
2014-Oct-12 17:30N 48°07' W 122°42'8 8.8
2014-Oct-12 16:33N 48°14' W 122°48'3 9.6
2014-Oct-12 16:17N 48°17' W 122°48'7 9.5
2014-Oct-12 15:33N 48°24' W 122°45'8 7.8
2014-Oct-12 14:33N 48°31' W 122°45'6 5.8
2014-Oct-12 13:33N 48°37' W 122°45'7 6.5
2014-Oct-12 12:33N 48°44' W 122°46'9 9.1
2014-Oct-12 11:34N 48°49' W 122°57'9 9.2
2014-Oct-12 10:33N 48°55' W 123°09'10 9.6
2014-Oct-12 09:33N 49°01' W 123°20'10 9.7
2014-Oct-12 08:33N 49°08' W 123°30'1010.0
2014-Oct-12 07:33N 49°14' W 123°42'1010.3
2014-Oct-12 06:33N 49°21' W 123°54'10 9.8
2014-Oct-12 05:33N 49°27' W 124°05'1010.2
2014-Oct-12 04:33N 49°32' W 124°19'10 9.8
2014-Oct-12 03:32N 49°38' W 124°32'13 9.6
2014-Oct-12 02:10N 49°46' W 124°48'6 9.5
2014-Oct-12 01:32N 49°50' W 124°55'72 8.7
2014-Oct-11 17:15N 50°30' W 126°28'12 6.9
2014-Oct-11 15:27N 50°36' W 126°45'9 9.3
2014-Oct-11 14:27N 50°42' W 126°56'8 9.1
2014-Oct-11 13:33N 50°47' W 127°06'9 8.7
2014-Oct-11 12:33N 50°52' W 127°18'8 8.4
2014-Oct-11 11:33N 50°57' W 127°28'9 9.0
2014-Oct-11 10:33N 51°03' W 127°39'8 8.3
2014-Oct-11 09:33N 51°08' W 127°49'8 7.1
2014-Oct-11 08:26N 51°16' W 127°52'6 6.6
2014-Oct-11 07:30N 51°22' W 127°53'7 7.8
2014-Oct-11 06:33N 51°29' W 127°51'184 7.3
2014-Oct-10 05:16N 54°08' W 130°23'6 8.0
2014-Oct-10 04:33N 54°13' W 130°29'8 8.1
2014-Oct-10 03:33N 54°20' W 130°36'8 8.4
2014-Oct-10 02:33N 54°28' W 130°40'9 8.8
2014-Oct-10 01:32N 54°37' W 130°44'  

Dump ship's entire track history